Skip Page Navigation
NASA JPL Caltech
NASA Logo - Jet Propulsion Laboratory + View the NASA Portal
+ Near-Earth Object (NEO) Program
Search JPL
JPL Home Earth Solar System Stars & Galaxies Technology
JPL Solar System Dynamics
BODIES ORBITS EPHEMERIDES TOOLS PHYSICAL DATA DISCOVERY FAQ SITE MAP
JPL Small-Body Database Browser
Search: [ help ]  
10660 Felixhormuth (4348 T-1)
Classification: Main-belt Asteroid          SPK-ID: 2010660
Ephemeris | Orbit Diagram | Orbital Elements | Physical Parameters | Discovery Circumstances | Close-Approach Data ]

[ show orbit diagram ]
Orbital Elements at Epoch 2456800.5 (2014-May-23.0) TDB
Reference: JPL 7 (heliocentric ecliptic J2000)
 Element Value Uncertainty (1-sigma)   Units 
e .1448991598505589 8.8579e-08  
a 3.154638377263093 4.3315e-08 AU
q 2.697533926765341 2.8514e-07 AU
i 6.868316398102394 1.0898e-05 deg
node 40.61020832686488 6.3933e-05 deg
peri 123.1939914557307 7.1809e-05 deg
M 264.0493007771437 3.7363e-05 deg
tp 2457345.966952345220
(2015-Nov-19.46695235)
0.000219 JED
period 2046.552077626784
5.60
4.215e-05
1.154e-07
d
yr
n .1759056140987441 3.6229e-09 deg/d
Q 3.611742827760846 4.9591e-08 AU
  Orbit Determination Parameters
   # obs. used (total)      553  
   data-arc span      15642 days (42.83 yr)  
   first obs. used      1971-03-26  
   last obs. used      2014-01-21  
   planetary ephem.      DE431  
   SB-pert. ephem.      SB431-BIG16  
   condition code      0  
   fit RMS      .61179  
   data source      ORB  
   producer      Otto Matic  
   solution date      2014-Feb-19 18:13:58  

Additional Information
 Earth MOID = 1.71285 AU 
 T_jup = 3.179 
[ show covariance matrix ]

Ephemeris | Orbit Diagram | Orbital Elements | Physical Parameters | Discovery Circumstances | Close-Approach Data ]

Physical Parameter Table
Parameter Symbol Value Units Sigma Reference Notes
absolute magnitude H 13.9 mag n/a MPO267750  

10660 Felixhormuth           Discovered 1971 Mar. 26 by C. J. van Houten and I. van Houten-Groeneveld on Palomar Schmidt plates taken by T. Gehrels.
Felix Hormuth (b. 1975) is a developer of auxiliary instruments at Calar Alto Observatory. An observer of minor planets for many years, he is also a supporter of the Faulkes Telescope Educational Project. The name was suggested by L. Kurtze and L. D. Schmadel.
NOTE: some special characters may not display properly (any characters within {} are an attempt to place the proper accent above a character)
Reference: 20070402/MPCPages.arcLast Updated: 2007-07-05

[ show close-approach data ]
Ephemeris | Orbit Diagram | Orbital Elements | Physical Parameters | Discovery Circumstances | Close-Approach Data ]
ABOUT SSD CREDITS/AWARDS PRIVACY/COPYRIGHT GLOSSARY LINKS
FirstGov 2014-Apr-23 11:51 UT
(server date/time)  
NASA Home Page
Site Manager:   Donald K. Yeomans
Webmaster  Alan B. Chamberlin